Simultaneous Nadir Overpasses (SNOs) Predictions

Prediction of SNOs between AQUA and METOP-A Satellite Orbit:

Table of predicted SNOs for the next 14.0 days since TLE Epoch: 10/23/2021
Index Date (AQUA) Time (AQUA) Lat,Lon (AQUA) SZA (AQUA ) Date (METOP-A) Time (METOP-A) Lat,Lon (METOP-A) SZA (METOP-A ) Distance(km) Time Diff (sec)
1 10/24/2021 01:50:16 77.87, 134.38 89.94 10/24/2021 01:49:32 77.87, 134.56 89.94 4.32 44
2 10/24/2021 02:39:42 -77.88, -57.99 90.05 10/24/2021 02:40:13 -77.89, -58.03 90.04 1.76 31
3 10/26/2021 21:24:33 77.86,-159.12 90.88 10/26/2021 21:23:51 77.85,-159.19 90.89 1.75 42
4 10/26/2021 22:14:00 -77.90, 8.31 89.05 10/26/2021 22:14:31 -77.91, 8.42 89.06 2.65 31
5 10/29/2021 16:58:52 77.89, -92.86 91.86 10/29/2021 16:58:10 77.87, -92.76 91.85 3.37 42
6 10/29/2021 17:48:18 -77.89, 74.79 88.13 10/29/2021 17:48:51 -77.89, 74.66 88.13 2.97 33
7 11/01/2021 12:33:10 77.89, -26.42 92.77 11/01/2021 12:32:29 77.89, -26.33 92.77 2.13 41
8 11/01/2021 13:22:37 -77.94, 141.03 87.17 11/01/2021 13:23:10 -77.91, 141.09 87.21 3.32 33
9 11/04/2021 08:07:27 77.90, 39.98 93.66 11/04/2021 08:06:47 77.90, 40.08 93.66 2.44 40
10 11/04/2021 08:56:54 -77.94,-152.57 86.29 11/04/2021 08:57:28 -77.93,-152.49 86.31 2.59 34



Historial Predications of SNOs between AQUA and METOP-A
